Weather History for Cincinnati, OH

Change the Weather History Date:

Monday, March 25, 2013

  Actual Average Record
Temperature  
Mean Temperature 33 °F -  
Max Temperature 36 °F 54 °F 82 °F (2007)
Min Temperature 30 °F 34 °F 12 °F (1974)
Degree Days  
Heating Degree Days 32    
Moisture  
Dew Point 31 °F    
Average Humidity 92    
Maximum Humidity 100    
Minimum Humidity 85    
Precipitation  
Precipitation 0.00 in - - ()
Sea Level Pressure  
Sea Level Pressure 29.63 in    
Wind  
Wind Speed 6 mph (West)    
Max Wind Speed 15 mph    
Max Gust Speed 24 mph    
Visibility 5 miles    
Events Rain , Snow    
Averages and records for this station are not official NWS values.
T = Trace of Precipitation, MM = Missing Value Source: NWS Daily Summary

Daily Weather History Graph

Daily Weather History Graph

Search for Another Location

Airport:

Trip Planner

Search our weather history database for the weather conditions in past years. The results will help you decide how hot, cold, wet, or windy it might be!

Date:

Astronomy

Mar. 25, 2013 Rise Set
Actual Time 7:32 AM EDT 7:54 PM EDT
Civil Twilight 7:06 AM EDT 8:21 PM EDT
Nautical Twilight 6:34 AM EDT 8:53 PM EDT
Astronomical Twilight 6:02 AM EDT 9:25 PM EDT
Moon 6:25 PM EDT (3/25) 6:15 AM EDT (3/25)
Length of Visible Light 13h 15m
Length of Day
12h 21m
Waxing Gibbous, 96% of the Moon is Illuminated
Mar 25
Waxing Gibbous
Mar 27
Full
Apr 3
Last Quarter
Apr 10
New
Apr 18
First Quarter

Hourly Weather History & Observations

Time (EDT) Temp. Windchill Dew Point Humidity Pressure Visibility Wind Dir Wind Speed Gust Speed Precip Events Conditions
12:10 AM 33.8 °F - 33.8 °F 100% 29.45 in 3.0 mi Calm Calm - 0.00 in   Overcast
12:24 AM 32.0 °F - 32.0 °F 100% 29.44 in 2.5 mi Calm Calm - 0.00 in   Overcast
12:53 AM 32.0 °F - 32.0 °F 100% 29.46 in 2.0 mi Calm Calm - 0.00 in   Overcast
1:32 AM 32.0 °F - 32.0 °F 100% 29.45 in 2.0 mi Calm Calm - 0.00 in   Overcast
1:50 AM 32.0 °F - 32.0 °F 100% 29.45 in 3.0 mi Calm Calm - 0.00 in   Overcast
1:53 AM 32.0 °F 28.7 °F 32.0 °F 100% 29.46 in 3.0 mi SSW 3.5 mph - 0.00 in   Overcast
2:00 AM 33.8 °F 28.6 °F 33.8 °F 100% 29.45 in 4.0 mi WSW 5.8 mph - N/A   Overcast
2:53 AM 34.0 °F 26.6 °F 33.1 °F 96% 29.47 in 10.0 mi WSW 9.2 mph - 0.00 in Rain Light Rain
3:53 AM 33.1 °F 27.7 °F 33.1 °F 100% 29.47 in 7.0 mi SW 5.8 mph - 0.00 in Rain Light Rain
4:51 AM 33.8 °F 27.7 °F 32.0 °F 93% 29.46 in 10.0 mi SW 6.9 mph - 0.00 in   Overcast
4:53 AM 34.0 °F 26.6 °F 32.0 °F 92% 29.47 in 10.0 mi SW 9.2 mph - 0.00 in   Overcast
5:18 AM 33.8 °F 27.0 °F 32.0 °F 93% 29.46 in 10.0 mi WSW 8.1 mph - N/A   Overcast
5:45 AM 33.8 °F 29.6 °F 32.0 °F 93% 29.47 in 9.0 mi NW 4.6 mph - N/A   Overcast
5:53 AM 33.1 °F 27.7 °F 30.9 °F 92% 29.48 in 8.0 mi NW 5.8 mph - 0.00 in Snow Light Snow
6:31 AM 32.0 °F 22.5 °F 30.2 °F 93% 29.49 in 2.5 mi West 12.7 mph - 0.00 in Snow Light Snow
6:37 AM 32.0 °F 23.6 °F 30.2 °F 93% 29.49 in 3.0 mi West 10.4 mph - 0.00 in Snow Light Snow
6:53 AM 32.0 °F 22.5 °F 30.0 °F 92% 29.51 in 3.0 mi West 12.7 mph - 0.00 in Snow Light Snow
7:17 AM 30.2 °F 21.3 °F 28.4 °F 93% 29.51 in 2.5 mi West 10.4 mph - 0.00 in Snow Light Snow
7:53 AM 30.9 °F 21.2 °F 28.9 °F 92% 29.54 in 2.5 mi West 12.7 mph - 0.00 in Snow Light Snow
8:39 AM 30.2 °F 21.3 °F 28.4 °F 93% 29.55 in 1.5 mi West 10.4 mph 19.6 mph 0.00 in Snow Light Snow
8:53 AM 30.9 °F 20.7 °F 28.0 °F 89% 29.57 in 3.0 mi West 13.8 mph - 0.00 in Snow Light Snow
9:10 AM 30.2 °F 20.8 °F 28.4 °F 93% 29.56 in 1.8 mi West 11.5 mph - 0.00 in Snow Light Snow
9:19 AM 30.2 °F 20.2 °F 28.4 °F 93% 29.56 in 2.0 mi West 12.7 mph - 0.00 in Snow Light Snow
9:53 AM 30.9 °F 22.2 °F 28.9 °F 92% 29.59 in 1.5 mi West 10.4 mph - 0.00 in Snow Light Snow
10:53 AM 32.0 °F 23.6 °F 28.9 °F 88% 29.61 in 2.0 mi West 10.4 mph - 0.00 in Snow Light Snow
11:53 AM 32.0 °F 21.6 °F 30.0 °F 92% 29.64 in 2.0 mi West 15.0 mph - 0.00 in Snow Light Snow
12:53 PM 34.0 °F 26.0 °F 32.0 °F 92% 29.67 in 2.0 mi West 10.4 mph - 0.00 in Snow Light Snow
1:53 PM 34.0 °F 24.6 °F 30.9 °F 89% 29.69 in 2.0 mi West 13.8 mph 24.2 mph 0.00 in Snow Light Snow
2:53 PM 35.1 °F 26.9 °F 30.9 °F 85% 29.71 in 2.0 mi West 11.5 mph - 0.00 in Snow Light Snow
3:53 PM 35.1 °F 27.4 °F 32.0 °F 89% 29.74 in 2.5 mi West 10.4 mph - 0.00 in Snow Light Snow
4:53 PM 36.0 °F 29.0 °F 33.1 °F 89% 29.77 in 2.0 mi WNW 9.2 mph 17.3 mph 0.00 in Snow Light Snow
5:53 PM 35.1 °F 28.6 °F 32.0 °F 89% 29.81 in 2.0 mi WNW 8.1 mph - 0.00 in Snow Light Snow
6:53 PM 35.1 °F 31.0 °F 32.0 °F 89% 29.84 in 2.5 mi Variable 4.6 mph - 0.00 in Snow Light Snow
7:19 PM 35.6 °F 31.7 °F 32.0 °F 87% 29.85 in 4.0 mi WNW 4.6 mph - 0.00 in   Overcast
7:53 PM 35.1 °F 28.6 °F 30.9 °F 85% 29.88 in 4.0 mi WNW 8.1 mph - 0.00 in   Overcast
8:53 PM 35.1 °F 29.3 °F 30.9 °F 85% 29.92 in 9.0 mi WNW 6.9 mph 16.1 mph 0.00 in Snow Light Snow
9:53 PM 35.1 °F 31.0 °F 32.0 °F 89% 29.95 in 10.0 mi Variable 4.6 mph - 0.00 in   Overcast
10:00 PM 33.8 °F 29.6 °F 32.0 °F 93% 29.94 in 10.0 mi NW 4.6 mph - N/A   Overcast
10:53 PM 34.0 °F 28.0 °F 30.9 °F 89% 29.96 in 10.0 mi WNW 6.9 mph - 0.00 in   Overcast
11:00 PM 33.8 °F 29.6 °F 30.2 °F 87% 29.96 in 10.0 mi Variable 4.6 mph - N/A   Overcast
11:53 PM 34.0 °F 29.8 °F 30.0 °F 85% 29.98 in 10.0 mi WNW 4.6 mph - 0.00 in   Overcast